#timestamp,LO_Frequency,Hit,StdDev 
1455865215.6,286047001.3,N
1455865235.4,286047006.5,N
1455865255.2,286047006.4,N
1455865275.1,286047004.7,N
1455865276.0,286047004.7,N
1455865295.8,286047004.9,N
1455865315.6,286047007.2,N
1455865335.4,286047007.8,N
1455865355.3,286047008.3,Y
1455865375.1,286047005.4,P
1455865395.8,286047003.6,P
1455865415.7,286046999.7,N
1455865435.5,286047000.5,N
1455865455.3,286046996.5,N
1455865475.2,286046995.3,N
1455865495.9,286046995.3,N
1455865515.7,286046996.3,N
1455865535.6,286046996.4,N
1455865555.4,286046995.9,N
1455865575.2,286046998.4,N
1455865595.1,286047002.3,N
1455865596.0,286047002.3,N
1455865615.8,286046998.1,N
1455865635.6,286046998.1,N
1455865655.5,286046999.6,N
1455865675.3,286046999.3,N
1455865695.1,286046996.7,N
1455865715.8,286046995.5,N
1455865735.7,286046994.2,N
1455865755.5,286046992.4,N
1455865775.3,286046993.3,N
1455865795.2,286046994.5,N
1455865815.9,286046994.7,N
1455865835.7,286046993.8,N
1455865855.6,286046993.3,N
1455865875.4,286046996.0,N
1455865895.2,286046995.6,N
1455865915.1,286046997.8,N
1455865916.0,286046997.8,N
1455865935.8,286046999.0,N
1455865955.6,286046996.8,N
1455865975.5,286046996.7,N
1455865995.3,286046998.9,N
1455866015.1,286046997.9,N
1455866035.8,286046998.9,N
1455866055.7,286046999.2,N
1455866075.5,286046996.2,N
1455866095.3,286046994.6,N
1455866115.2,286046990.3,Y
1455866135.0,286046995.6,P
1455866135.9,286046995.6,P
1455866155.7,286046994.2,P
1455866175.6,286046993.8,Y
1455866195.4,286047000.4,P
1455866215.2,286047001.4,N
1455866235.1,286047005.4,N
1455866236.0,286047005.4,N
1455866255.8,286047006.0,N
1455866275.6,286047005.8,N
1455866295.5,286047002.0,N
1455866315.3,286047000.1,N
1455866335.1,286047001.8,N
1455866355.9,286047000.0,N
1455866375.7,286047001.2,N
1455866395.5,286046996.8,N
1455866415.4,286046993.6,N
1455866435.2,286046994.5,N
1455866455.0,286046990.3,N
1455866455.9,286046990.3,N
1455866475.8,286046990.7,N
1455866495.6,286046990.4,N
1455866515.4,286046991.9,N
1455866535.2,286046993.9,N
1455866555.1,286046995.9,N
1455866556.0,286046995.9,N
1455866575.8,286046994.2,N
1455866595.6,286046994.5,N
1455866615.5,286046993.0,N
1455866635.3,286046990.6,N
1455866655.1,286046991.1,N
1455866675.9,286046992.6,N
1455866695.7,286046994.3,N
1455866715.5,286046990.8,N
1455866735.4,286046989.1,N
1455866755.2,286046991.4,N
1455866775.0,286046992.6,N
1455866775.9,286046992.6,N
1455866795.8,286046990.4,N
1455866815.6,286046990.7,N
1455866835.4,286046991.6,N
1455866855.3,286046989.8,N
1455866875.1,286046988.1,Y
1455866876.0,286046988.1,P
1455866895.8,286046993.1,N
1455866915.7,286046993.1,N
1455866935.5,286046993.2,Y
1455866955.3,286047002.1,P
1455866975.2,286047001.6,N
1455866995.9,286047001.6,N
1455867015.7,286047000.8,N
1455867035.6,286046999.2,N
1455867055.4,286046997.4,N
1455867075.2,286046997.6,N
1455867095.0,286046994.3,N
1455867095.9,286046994.3,N
1455867115.8,286046990.6,N
1455867135.6,286046990.7,N
1455867155.4,286046989.5,N
1455867175.3,286046988.6,N
1455867195.1,286046987.4,N
1455867196.0,286046987.4,N
1455867215.8,286046987.8,N
1455867235.7,286046987.6,N
1455867255.5,286046988.4,N
1455867275.3,286046989.1,N
1455867295.2,286046990.2,N
1455867315.9,286046994.8,N
1455867335.7,286046992.4,N
1455867355.5,286046992.0,N
1455867375.4,286046992.8,N
1455867395.2,286046993.0,N
1455867415.0,286046991.8,N
1455867415.9,286046991.8,N
1455867435.8,286046992.2,N
1455867455.6,286046989.1,N
1455867475.4,286046992.2,N
1455867495.3,286046993.9,N
1455867515.1,286046997.6,N
1455867516.0,286046997.6,N
1455867535.8,286046997.3,N
1455867555.7,286046993.4,N
1455867575.5,286046996.0,N
1455867595.3,286046996.2,N
1455867615.2,286046998.0,N
1455867635.9,286046997.3,N
1455867655.7,286046995.6,N
1455867675.5,286046993.5,N
1455867695.4,286046992.7,N
1455867715.2,286046988.5,Y
1455867735.1,286046992.2,P
1455867736.0,286046992.2,P
1455867755.8,286046990.4,P
1455867775.6,286046992.6,Y
1455867795.5,286046999.4,P
1455867815.3,286046998.6,N
1455867835.1,286046999.4,N
1455867855.9,286046998.8,N
1455867875.7,286046998.7,N
1455867895.5,286046998.0,N
1455867915.3,286046998.0,N
1455867935.2,286046995.3,N
1455867955.0,286046994.7,N
1455867955.9,286046994.7,N
1455867975.8,286046996.4,N
1455867995.6,286046995.1,N
1455868015.4,286046997.4,N
1455868035.2,286046993.6,N
1455868055.1,286046994.3,N
1455868056.0,286046994.3,N
1455868075.8,286046995.0,N
1455868095.6,286046995.7,N
1455868115.5,286046995.9,N
1455868135.3,286046992.4,Y
1455868155.1,286046996.3,P
1455868175.9,286046993.8,P
1455868195.7,286046995.3,P
1455868215.5,286046996.2,Y
1455868235.4,286047002.1,P
1455868255.2,286047004.0,N
1455868275.0,286047002.6,N
1455868275.9,286047002.6,N
1455868295.8,286047000.2,N
1455868315.6,286047000.6,N
1455868335.4,286047001.2,N
1455868355.3,286046998.6,N
1455868375.1,286046997.9,N
1455868376.0,286046997.9,N
1455868395.8,286046995.3,N
1455868415.7,286046996.7,N
1455868435.5,286046997.4,N
1455868455.3,286047000.8,N
1455868475.2,286047001.6,N
1455868495.9,286046998.5,N
1455868515.7,286046998.5,N
1455868535.5,286046999.0,N
1455868555.4,286047001.6,N
1455868575.2,286047002.3,N
1455868595.0,286047002.8,N
1455868595.9,286047002.8,N
1455868615.8,286047002.8,N
1455868635.6,286047000.7,N
1455868655.4,286046999.1,N
1455868675.3,286046996.2,N
1455868695.1,286046993.9,N
1455868696.0,286046993.9,N
1455868715.8,286046992.3,N
1455868735.7,286046990.7,Y
1455868755.5,286046989.0,P
1455868775.3,286046989.6,N
1455868795.2,286046991.3,N
1455865215.1,286046996.5,N
1455865216.0,286046996.5,N
1455865235.8,286046995.0,N
1455865255.6,286046993.4,N
1455865275.5,286046990.6,N
1455865295.3,286046990.8,N
1455865315.1,286046992.1,N
1455865335.9,286046995.2,N
1455865355.7,286046997.5,N
1455865375.5,286046993.9,N
1455865395.4,286046994.2,N
1455865415.2,286046992.6,N
1455865435.0,286046993.1,N
1455865435.9,286046993.1,N
1455865455.8,286046993.6,N
1455865475.6,286046993.8,N
1455865495.4,286046994.2,N
1455865515.2,286046992.9,N
1455865535.1,286046991.7,N
1455865536.0,286046991.7,N
1455865555.8,286046994.5,N
1455865575.6,286046994.8,N
1455865595.5,286046996.4,N
1455865615.3,286046992.2,N
1455865635.1,286046994.2,N
1455865655.9,286046993.9,N
1455865675.7,286046993.0,N
1455865695.5,286046992.3,Y
1455865715.4,286047001.2,P
1455865735.2,286047002.7,N
1455865755.0,286047001.9,N
1455865755.9,286047001.9,N
1455865775.8,286047004.1,N
1455865795.6,286047000.6,N
1455865815.4,286047004.4,N
1455865835.3,286047001.9,N
1455865855.1,286047003.6,N
1455865856.0,286047003.6,N
1455865875.8,286047001.9,N
1455865895.7,286047001.2,N
1455865915.5,286047000.5,N
1455865935.3,286046996.5,N
1455865955.1,286046997.3,N
1455865975.9,286046998.1,N
1455865995.7,286046998.3,N
1455866015.5,286047001.0,N
1455866035.4,286047001.0,N
1455866055.2,286047004.2,N
1455866075.0,286047001.6,N
1455866075.9,286047001.6,N
1455866095.8,286047000.9,N
1455866115.6,286046997.1,N
1455866135.4,286046996.5,N
1455866155.3,286046997.9,N
1455866175.1,286046997.9,N
1455866176.0,286046997.9,N
1455866195.8,286046991.7,Y
1455866215.7,286046992.4,P
1455866235.5,286046991.1,N
1455866255.3,286046992.3,N
1455866275.2,286046995.2,N
1455866295.9,286046993.8,N
1455866315.7,286046995.0,N
1455866335.5,286046994.1,N
1455866355.4,286046994.4,N
1455866375.2,286046994.0,N
1455866395.0,286046993.7,N
1455866395.9,286046993.7,N
1455866415.8,286046994.2,N
1455866435.6,286046992.4,Y
1455866455.4,286046998.4,P
1455866475.3,286047000.7,N
1455866495.1,286046999.5,N
1455866515.8,286046994.9,N
1455866535.7,286046996.2,N
1455866555.5,286046996.2,N
1455866575.3,286046994.2,N
1455866595.2,286046991.8,Y
1455866615.0,286046995.4,P
1455866615.9,286046995.4,P
1455866635.7,286046995.1,P
1455866655.6,286046995.6,Y
1455866675.4,286046996.9,P
1455866695.2,286046995.8,P
1455866715.1,286046996.8,P
1455866716.0,286046996.8,Y
1455866735.8,286047002.0,P
1455866755.6,286047000.7,N
1455866775.5,286047002.7,N
1455866795.3,286047004.2,N
1455866815.1,286047001.7,N
1455866835.9,286047003.1,N
1455866855.7,286047003.0,N
1455866875.5,286047003.1,N
1455866895.4,286047004.1,N
1455866915.2,286047000.2,N
1455866935.0,286046999.7,N
1455866935.9,286046999.7,N
1455866955.8,286047004.1,N
1455866975.6,286047003.4,N
1455866995.4,286047002.6,N
1455867015.3,286047005.4,N
1455867035.1,286047007.4,Y
1455867036.0,286047007.4,P
1455867055.8,286047004.2,N
1455867075.7,286047002.5,N
1455867095.5,286047003.2,N
1455867115.3,286047003.4,N
1455867135.2,286046999.7,N
1455867155.9,286046999.9,N
1455867175.7,286046998.6,N
1455867195.5,286046999.9,N
1455867215.4,286046998.6,N
1455867235.2,286046999.6,N
1455867255.0,286046997.6,N
1455867255.9,286046997.6,N
1455867275.8,286046993.5,N
1455867295.6,286046999.4,N
1455867315.4,286046998.3,N
1455867335.3,286046999.2,N
1455867355.1,286046994.9,N
1455867356.0,286046994.9,N
1455867375.8,286046996.3,N
1455867395.7,286046995.7,N
1455867415.5,286046995.8,N
1455867435.3,286047016.7,Y
1455867455.2,286047045.5,P
1455867475.9,286047024.3,N
1455867495.7,286047011.9,N
1455867515.6,286047006.9,N
1455867535.4,286047008.7,N
1455867555.2,286047010.9,N
1455867575.1,286047012.5,N
1455867576.0,286047012.5,N
1455867595.8,286047013.8,N
1455867615.6,286047013.6,N
1455867635.4,286047017.0,N
1455867655.3,286047016.1,N
1455867675.1,286047011.2,N
1455867695.8,286047010.9,N
1455867715.7,286047011.2,N
1455867735.5,286047011.5,N
1455867755.3,286047007.8,N
1455867775.2,286047007.9,N
1455867795.9,286047007.0,N
1455867815.7,286047003.4,N
1455867835.6,286047006.1,N
1455867855.4,286047004.2,N
1455867875.2,286047003.3,N
1455867895.0,286047006.1,N
1455867896.0,286047006.1,N
1455867915.8,286047008.0,N
1455867935.6,286047006.1,N
1455867955.4,286047007.5,N
1455867975.3,286047007.4,N
1455867995.1,286047005.4,N
1455868015.8,286047003.2,N
1455868035.7,286046999.0,N
1455868055.5,286046997.2,N
1455868075.3,286046995.5,N
1455868095.2,286046999.4,N
1455868115.9,286046996.7,N
1455868135.7,286046999.4,N
1455868155.6,286046998.4,N
1455868175.4,286046999.6,N
1455868195.2,286046996.6,N
1455868215.0,286046996.5,N
1455868216.0,286046996.5,N
1455868235.8,286046999.3,N
1455868255.6,286047000.8,N
1455868275.4,286047000.7,N
1455868295.3,286047004.0,N
1455868315.1,286047001.8,N
1455868335.8,286047004.4,N
1455868355.7,286047005.5,N
1455868375.5,286047004.9,N
1455868395.3,286047007.4,N
1455868415.2,286047004.9,N
1455868435.9,286047004.1,N
1455868455.7,286047003.1,N
1455868475.6,286047006.7,N
1455868495.4,286047012.3,Y
1455868515.2,286047011.2,P
1455868535.1,286047009.7,N
1455868536.0,286047009.7,N
1455868555.8,286047012.0,Y
1455868575.6,286047005.3,P
1455868595.5,286047005.1,P
1455868615.3,286047003.3,N
1455868635.1,286047002.9,N
1455868655.9,286047005.0,N
1455868675.7,286047008.5,Y
1455868695.5,286047003.1,P
1455868715.4,286047001.7,N
1455868735.2,286047003.4,N
1455868755.0,286047005.6,Y
1455868755.9,286047005.6,P
1455868775.8,286047000.3,N
1455868795.6,286046997.7,N
